PRIVATE WETTERSTATION BILLIGHEIM-ALLFELD                       ZURCK
Wetterdaten: Mittwoch, 17.09.2014
Datum Zeit Temp. A. Temp. A. min Temp. A. max Feuchte A. Luftdruck Regen Wind Richtung Richtung Sonnenschein ET Solar Taupunkt Windchill Windben Empfang
17.09.2014 00:00 13,2 C 13,2 C 13,4 C 90 % 1013,7 hPa 0,0 l/m 0,0 km/h (0 Bft) N-NO 22 0 min 0,000 mm 0 W/m 11,6 C 13,2 C 3,2 km/h (1 Bft) 98 %
17.09.2014 00:10 12,9 C 12,9 C 13,2 C 90 % 1013,7 hPa 0,0 l/m 0,0 km/h (0 Bft) N-NW 337 0 min 0,000 mm 0 W/m 11,3 C 12,9 C 4,8 km/h (1 Bft) 98 %
17.09.2014 00:20 12,8 C 12,8 C 12,9 C 90 % 1013,6 hPa 0,0 l/m 0,0 km/h (0 Bft) N 0 0 min 0,000 mm 0 W/m 11,2 C 12,8 C 0,0 km/h (0 Bft) 98 %
17.09.2014 00:30 12,7 C 12,7 C 12,8 C 90 % 1013,4 hPa 0,0 l/m 0,0 km/h (0 Bft) N 0 0 min 0,000 mm 0 W/m 11,1 C 12,7 C 0,0 km/h (0 Bft) 97 %
17.09.2014 00:40 12,6 C 12,5 C 12,7 C 90 % 1013,3 hPa 0,0 l/m 0,0 km/h (0 Bft) N-NW 337 0 min 0,000 mm 0 W/m 11,0 C 12,6 C 1,6 km/h (1 Bft) 98 %
17.09.2014 00:50 12,4 C 12,4 C 12,6 C 90 % 1013,3 hPa 0,0 l/m 0,0 km/h (0 Bft) N 0 0 min 0,000 mm 0 W/m 10,8 C 12,4 C 0,0 km/h (0 Bft) 97 %
17.09.2014 01:00 12,3 C 12,3 C 12,4 C 90 % 1013,2 hPa 0,0 l/m 0,0 km/h (0 Bft) N-NW 337 0 min 0,000 mm 0 W/m 10,7 C 12,3 C 1,6 km/h (1 Bft) 97 %
17.09.2014 01:10 12,3 C 12,3 C 12,3 C 90 % 1013,2 hPa 0,0 l/m 0,0 km/h (0 Bft) N 0 0 min 0,000 mm 0 W/m 10,7 C 12,3 C 0,0 km/h (0 Bft) 98 %
17.09.2014 01:20 12,3 C 12,3 C 12,3 C 90 % 1013,2 hPa 0,0 l/m 0,0 km/h (0 Bft) N-NW 337 0 min 0,000 mm 0 W/m 10,7 C 12,3 C 1,6 km/h (1 Bft) 97 %
17.09.2014 01:30 12,1 C 12,1 C 12,3 C 90 % 1013,2 hPa 0,0 l/m 0,0 km/h (0 Bft) N-NW 337 0 min 0,000 mm 0 W/m 10,5 C 12,1 C 1,6 km/h (1 Bft) 98 %
17.09.2014 01:40 12,0 C 12,0 C 12,2 C 90 % 1013,2 hPa 0,0 l/m 0,0 km/h (0 Bft) N 0 0 min 0,000 mm 0 W/m 10,4 C 12,0 C 0,0 km/h (0 Bft) 97 %
17.09.2014 01:50 12,1 C 12,0 C 12,1 C 90 % 1013,2 hPa 0,0 l/m 0,0 km/h (0 Bft) N-NW 337 0 min 0,000 mm 0 W/m 10,5 C 12,1 C 3,2 km/h (1 Bft) 97 %
17.09.2014 02:00 12,0 C 12,0 C 12,1 C 90 % 1013,1 hPa 0,0 l/m 1,6 km/h (1 Bft) N-NW 337 0 min 0,000 mm 0 W/m 10,4 C 12,0 C 3,2 km/h (1 Bft) 98 %
17.09.2014 02:10 11,9 C 11,9 C 12,0 C 90 % 1013,1 hPa 0,0 l/m 1,6 km/h (1 Bft) N-NW 337 0 min 0,000 mm 0 W/m 10,3 C 11,9 C 4,8 km/h (1 Bft) 98 %
17.09.2014 02:20 11,9 C 11,9 C 12,0 C 90 % 1013,0 hPa 0,0 l/m 0,0 km/h (0 Bft) N-NW 337 0 min 0,000 mm 0 W/m 10,3 C 11,9 C 3,2 km/h (1 Bft) 98 %
17.09.2014 02:30 11,8 C 11,8 C 11,9 C 90 % 1012,9 hPa 0,0 l/m 0,0 km/h (0 Bft) N-NW 337 0 min 0,000 mm 0 W/m 10,2 C 11,8 C 1,6 km/h (1 Bft) 97 %
17.09.2014 02:40 11,8 C 11,8 C 11,8 C 90 % 1012,9 hPa 0,0 l/m 0,0 km/h (0 Bft) N-NW 337 0 min 0,000 mm 0 W/m 10,2 C 11,8 C 3,2 km/h (1 Bft) 98 %
17.09.2014 02:50 11,7 C 11,7 C 11,8 C 90 % 1012,8 hPa 0,0 l/m 0,0 km/h (0 Bft) N 0 0 min 0,000 mm 0 W/m 10,1 C 11,7 C 0,0 km/h (0 Bft) 97 %
17.09.2014 03:00 11,6 C 11,6 C 11,7 C 90 % 1012,8 hPa 0,0 l/m 0,0 km/h (0 Bft) N-NW 337 0 min 0,000 mm 0 W/m 10,0 C 11,6 C 3,2 km/h (1 Bft) 98 %
17.09.2014 03:10 11,6 C 11,6 C 11,6 C 90 % 1012,8 hPa 0,0 l/m 0,0 km/h (0 Bft) N-NW 337 0 min 0,000 mm 0 W/m 10,0 C 11,6 C 1,6 km/h (1 Bft) 97 %
17.09.2014 03:20 11,5 C 11,4 C 11,6 C 90 % 1012,8 hPa 0,0 l/m 0,0 km/h (0 Bft) N-NW 337 0 min 0,000 mm 0 W/m 9,9 C 11,5 C 3,2 km/h (1 Bft) 98 %
17.09.2014 03:30 11,4 C 11,4 C 11,5 C 90 % 1012,8 hPa 0,0 l/m 0,0 km/h (0 Bft) N-NW 337 0 min 0,000 mm 0 W/m 9,8 C 11,4 C 3,2 km/h (1 Bft) 98 %
17.09.2014 03:40 11,4 C 11,4 C 11,4 C 90 % 1012,8 hPa 0,0 l/m 0,0 km/h (0 Bft) N-NW 337 0 min 0,000 mm 0 W/m 9,8 C 11,4 C 1,6 km/h (1 Bft) 97 %
17.09.2014 03:50 11,3 C 11,3 C 11,4 C 90 % 1012,8 hPa 0,0 l/m 0,0 km/h (0 Bft) N-NW 337 0 min 0,000 mm 0 W/m 9,7 C 11,3 C 1,6 km/h (1 Bft) 97 %
17.09.2014 04:00 11,3 C 11,3 C 11,3 C 90 % 1012,8 hPa 0,0 l/m 0,0 km/h (0 Bft) N 0 0 min 0,000 mm 0 W/m 9,7 C 11,3 C 0,0 km/h (0 Bft) 97 %
17.09.2014 04:10 11,2 C 11,2 C 11,3 C 90 % 1012,8 hPa 0,0 l/m 0,0 km/h (0 Bft) N-NW 337 0 min 0,000 mm 0 W/m 9,6 C 11,2 C 3,2 km/h (1 Bft) 97 %
17.09.2014 04:20 11,1 C 11,1 C 11,2 C 90 % 1012,9 hPa 0,0 l/m 0,0 km/h (0 Bft) N-NW 337 0 min 0,000 mm 0 W/m 9,5 C 11,1 C 3,2 km/h (1 Bft) 98 %
17.09.2014 04:30 11,1 C 11,1 C 11,1 C 90 % 1012,9 hPa 0,0 l/m 0,0 km/h (0 Bft) N-NW 337 0 min 0,000 mm 0 W/m 9,5 C 11,1 C 1,6 km/h (1 Bft) 98 %
17.09.2014 04:40 11,1 C 11,1 C 11,1 C 90 % 1012,8 hPa 0,0 l/m 0,0 km/h (0 Bft) N-NW 337 0 min 0,000 mm 0 W/m 9,5 C 11,1 C 1,6 km/h (1 Bft) 98 %
17.09.2014 04:50 11,0 C 11,0 C 11,1 C 90 % 1012,8 hPa 0,0 l/m 0,0 km/h (0 Bft) N-NW 337 0 min 0,000 mm 0 W/m 9,4 C 11,0 C 3,2 km/h (1 Bft) 96 %
17.09.2014 05:00 11,0 C 10,9 C 11,0 C 90 % 1012,9 hPa 0,0 l/m 0,0 km/h (0 Bft) N 0 0 min 0,000 mm 0 W/m 9,4 C 11,0 C 0,0 km/h (0 Bft) 88 %
17.09.2014 05:10 11,0 C 11,0 C 11,0 C 90 % 1012,9 hPa 0,0 l/m 0,0 km/h (0 Bft) N 0 0 min 0,000 mm 0 W/m 9,4 C 11,0 C 0,0 km/h (0 Bft) 97 %
17.09.2014 05:20 10,9 C 10,9 C 11,0 C 90 % 1012,8 hPa 0,0 l/m 0,0 km/h (0 Bft) N-NW 337 0 min 0,000 mm 0 W/m 9,3 C 10,9 C 1,6 km/h (1 Bft) 97 %
17.09.2014 05:30 10,9 C 10,9 C 10,9 C 90 % 1012,7 hPa 0,0 l/m 0,0 km/h (0 Bft) N-NW 337 0 min 0,000 mm 0 W/m 9,3 C 10,9 C 3,2 km/h (1 Bft) 98 %
17.09.2014 05:40 10,9 C 10,9 C 10,9 C 90 % 1012,8 hPa 0,0 l/m 0,0 km/h (0 Bft) N-NW 337 0 min 0,000 mm 0 W/m 9,3 C 10,9 C 3,2 km/h (1 Bft) 97 %
17.09.2014 05:50 10,9 C 10,9 C 10,9 C 90 % 1012,7 hPa 0,0 l/m 0,0 km/h (0 Bft) N 360 0 min 0,000 mm 0 W/m 9,3 C 10,9 C 4,8 km/h (1 Bft) 98 %
17.09.2014 06:00 10,9 C 10,9 C 10,9 C 90 % 1012,7 hPa 0,0 l/m 0,0 km/h (0 Bft) N 360 0 min 0,000 mm 0 W/m 9,3 C 10,9 C 1,6 km/h (1 Bft) 97 %
17.09.2014 06:10 10,8 C 10,8 C 10,9 C 90 % 1012,6 hPa 0,0 l/m 1,6 km/h (1 Bft) N 360 0 min 0,000 mm 0 W/m 9,2 C 10,8 C 3,2 km/h (1 Bft) 98 %
17.09.2014 06:20 10,7 C 10,7 C 10,8 C 90 % 1012,7 hPa 0,0 l/m 0,0 km/h (0 Bft) N 360 0 min 0,000 mm 0 W/m 9,1 C 10,7 C 1,6 km/h (1 Bft) 97 %
17.09.2014 06:30 10,6 C 10,6 C 10,7 C 90 % 1012,8 hPa 0,0 l/m 0,0 km/h (0 Bft) N 360 0 min 0,000 mm 0 W/m 9,0 C 10,6 C 1,6 km/h (1 Bft) 97 %
17.09.2014 06:40 10,6 C 10,6 C 10,6 C 90 % 1012,8 hPa 0,0 l/m 0,0 km/h (0 Bft) N 360 0 min 0,000 mm 0 W/m 9,0 C 10,6 C 3,2 km/h (1 Bft) 98 %
17.09.2014 06:50 10,6 C 10,6 C 10,6 C 90 % 1012,7 hPa 0,0 l/m 0,0 km/h (0 Bft) N 360 0 min 0,000 mm 0 W/m 9,0 C 10,6 C 3,2 km/h (1 Bft) 98 %
17.09.2014 07:00 10,6 C 10,6 C 10,6 C 90 % 1012,8 hPa 0,0 l/m 0,0 km/h (0 Bft) N 0 0 min 0,000 mm 0 W/m 9,0 C 10,6 C 0,0 km/h (0 Bft) 98 %
17.09.2014 07:10 10,6 C 10,6 C 10,6 C 90 % 1012,8 hPa 0,0 l/m 0,0 km/h (0 Bft) N 360 0 min 0,000 mm 7 W/m 9,0 C 10,6 C 1,6 km/h (1 Bft) 97 %
17.09.2014 07:20 10,5 C 10,5 C 10,6 C 90 % 1012,8 hPa 0,0 l/m 0,0 km/h (0 Bft) N 360 0 min 0,000 mm 11 W/m 8,9 C 10,5 C 1,6 km/h (1 Bft) 98 %
17.09.2014 07:30 10,5 C 10,5 C 10,5 C 90 % 1012,7 hPa 0,0 l/m 0,0 km/h (0 Bft) N 360 0 min 0,000 mm 16 W/m 8,9 C 10,5 C 3,2 km/h (1 Bft) 98 %
17.09.2014 07:40 10,6 C 10,4 C 10,6 C 90 % 1012,7 hPa 0,0 l/m 0,0 km/h (0 Bft) N 360 0 min 0,000 mm 21 W/m 9,0 C 10,6 C 1,6 km/h (1 Bft) 97 %
17.09.2014 07:50 10,6 C 10,6 C 10,7 C 90 % 1012,7 hPa 0,0 l/m 0,0 km/h (0 Bft) N 360 0 min 0,000 mm 26 W/m 9,0 C 10,6 C 1,6 km/h (1 Bft) 97 %
17.09.2014 08:00 10,7 C 10,6 C 10,7 C 90 % 1012,7 hPa 0,0 l/m 0,0 km/h (0 Bft) N 360 0 min 0,000 mm 32 W/m 9,1 C 10,7 C 3,2 km/h (1 Bft) 98 %
17.09.2014 08:10 10,8 C 10,7 C 10,8 C 90 % 1012,6 hPa 0,0 l/m 0,0 km/h (0 Bft) N 360 0 min 0,000 mm 40 W/m 9,2 C 10,8 C 3,2 km/h (1 Bft) 97 %
17.09.2014 08:20 10,9 C 10,8 C 10,9 C 90 % 1012,6 hPa 0,0 l/m 0,0 km/h (0 Bft) N 360 0 min 0,000 mm 54 W/m 9,3 C 10,9 C 1,6 km/h (1 Bft) 98 %
17.09.2014 08:30 11,3 C 10,9 C 11,3 C 90 % 1012,6 hPa 0,0 l/m 0,0 km/h (0 Bft) N 360 10 min 0,000 mm 162 W/m 9,7 C 11,3 C 3,2 km/h (1 Bft) 99 %
17.09.2014 08:40 11,8 C 11,3 C 11,8 C 90 % 1012,6 hPa 0,0 l/m 0,0 km/h (0 Bft) N 360 10 min 0,000 mm 186 W/m 10,2 C 11,8 C 1,6 km/h (1 Bft) 99 %
17.09.2014 08:50 12,5 C 11,8 C 12,5 C 90 % 1012,6 hPa 0,0 l/m 0,0 km/h (0 Bft) N 360 10 min 0,000 mm 214 W/m 10,9 C 12,5 C 1,6 km/h (1 Bft) 99 %
17.09.2014 09:00 13,3 C 12,5 C 13,3 C 91 % 1012,6 hPa 0,0 l/m 0,0 km/h (0 Bft) N 360 10 min 0,076 mm 237 W/m 11,9 C 13,3 C 1,6 km/h (1 Bft) 100 %
17.09.2014 09:10 13,9 C 13,3 C 13,9 C 91 % 1012,6 hPa 0,0 l/m 0,0 km/h (0 Bft) N 360 10 min 0,000 mm 260 W/m 12,5 C 13,9 C 3,2 km/h (1 Bft) 100 %
17.09.2014 09:20 14,3 C 13,9 C 14,3 C 90 % 1012,6 hPa 0,0 l/m 0,0 km/h (0 Bft) N-NO 22 10 min 0,000 mm 288 W/m 12,7 C 14,3 C 3,2 km/h (1 Bft) 100 %
17.09.2014 09:30 14,7 C 13,9 C 14,7 C 90 % 1012,7 hPa 0,0 l/m 0,0 km/h (0 Bft) N-NO 17 10 min 0,000 mm 313 W/m 13,1 C 14,7 C 1,6 km/h (1 Bft) 96 %
17.09.2014 09:40 15,1 C 14,7 C 15,1 C 89 % 1012,6 hPa 0,0 l/m 0,1 km/h (0 Bft) NO 34 10 min 0,000 mm 341 W/m 13,3 C 15,1 C 6,4 km/h (2 Bft) 99 %
17.09.2014 09:50 15,6 C 15,1 C 15,6 C 90 % 1012,6 hPa 0,0 l/m 0,1 km/h (0 Bft) O-NO 63 10 min 0,000 mm 364 W/m 14,0 C 15,6 C 3,2 km/h (1 Bft) 100 %
17.09.2014 10:00 16,0 C 15,6 C 16,0 C 90 % 1012,6 hPa 0,0 l/m 0,1 km/h (0 Bft) O-NO 58 10 min 0,153 mm 390 W/m 14,4 C 16,0 C 3,2 km/h (1 Bft) 100 %
17.09.2014 10:10 16,3 C 16,0 C 16,3 C 89 % 1012,7 hPa 0,0 l/m 0,1 km/h (0 Bft) N-NO 29 10 min 0,000 mm 420 W/m 14,5 C 16,3 C 3,2 km/h (1 Bft) 99 %
17.09.2014 10:20 16,7 C 16,3 C 16,7 C 89 % 1012,8 hPa 0,0 l/m 0,1 km/h (0 Bft) N-NO 28 10 min 0,000 mm 438 W/m 14,9 C 16,7 C 1,6 km/h (1 Bft) 100 %
17.09.2014 10:30 17,0 C 16,7 C 17,0 C 88 % 1012,7 hPa 0,0 l/m 0,0 km/h (0 Bft) N-NO 28 10 min 0,000 mm 466 W/m 15,0 C 17,0 C 1,6 km/h (1 Bft) 100 %
17.09.2014 10:40 17,4 C 17,0 C 17,4 C 88 % 1012,8 hPa 0,0 l/m 0,0 km/h (0 Bft) O-NO 57 10 min 0,000 mm 485 W/m 15,4 C 17,4 C 1,6 km/h (1 Bft) 100 %
17.09.2014 10:50 18,0 C 17,4 C 18,0 C 86 % 1012,7 hPa 0,0 l/m 0,0 km/h (0 Bft) NO 46 10 min 0,000 mm 506 W/m 15,6 C 18,0 C 1,6 km/h (1 Bft) 100 %
17.09.2014 11:00 18,4 C 18,0 C 18,4 C 85 % 1012,5 hPa 0,0 l/m 0,1 km/h (0 Bft) N 360 10 min 0,254 mm 534 W/m 15,8 C 18,4 C 3,2 km/h (1 Bft) 100 %
17.09.2014 11:10 18,9 C 18,4 C 18,9 C 85 % 1012,4 hPa 0,0 l/m 0,0 km/h (0 Bft) N-NW 333 10 min 0,000 mm 554 W/m 16,3 C 18,9 C 1,6 km/h (1 Bft) 100 %
17.09.2014 11:20 19,3 C 18,9 C 19,3 C 83 % 1012,5 hPa 0,0 l/m 0,5 km/h (0 Bft) NW 324 10 min 0,000 mm 570 W/m 16,3 C 19,3 C 8,0 km/h (2 Bft) 99 %
17.09.2014 11:30 19,4 C 19,3 C 19,4 C 83 % 1012,5 hPa 0,0 l/m 0,2 km/h (0 Bft) W-SW 238 10 min 0,000 mm 582 W/m 16,4 C 19,4 C 4,8 km/h (1 Bft) 100 %
17.09.2014 11:40 19,7 C 19,4 C 19,7 C 83 % 1012,3 hPa 0,0 l/m 0,0 km/h (0 Bft) O-SO 115 10 min 0,000 mm 598 W/m 16,7 C 19,7 C 1,6 km/h (1 Bft) 100 %
17.09.2014 11:50 20,1 C 19,7 C 20,1 C 80 % 1012,2 hPa 0,0 l/m 0,6 km/h (0 Bft) N 11 10 min 0,000 mm 608 W/m 16,5 C 20,1 C 6,4 km/h (2 Bft) 100 %
17.09.2014 12:00 20,3 C 20,1 C 20,3 C 81 % 1012,1 hPa 0,0 l/m 0,2 km/h (0 Bft) N-NW 339 10 min 0,330 mm 622 W/m 16,9 C 20,3 C 4,8 km/h (1 Bft) 99 %
17.09.2014 12:10 20,5 C 20,3 C 20,6 C 81 % 1012,1 hPa 0,0 l/m 0,3 km/h (0 Bft) O 86 10 min 0,000 mm 613 W/m 17,1 C 20,5 C 6,4 km/h (2 Bft) 100 %
17.09.2014 12:20 20,7 C 20,5 C 20,7 C 81 % 1012,1 hPa 0,0 l/m 0,8 km/h (0 Bft) O-SO 115 10 min 0,000 mm 640 W/m 17,3 C 20,7 C 6,4 km/h (2 Bft) 100 %
17.09.2014 12:30 21,1 C 20,7 C 21,1 C 81 % 1012,1 hPa 0,0 l/m 1,1 km/h (1 Bft) NO 39 10 min 0,000 mm 649 W/m 17,7 C 21,1 C 9,7 km/h (2 Bft) 100 %
17.09.2014 12:40 21,4 C 21,1 C 21,4 C 81 % 1012,1 hPa 0,0 l/m 1,5 km/h (1 Bft) NW 309 10 min 0,000 mm 649 W/m 18,0 C 21,4 C 9,7 km/h (2 Bft) 100 %
17.09.2014 12:50 21,7 C 21,4 C 21,7 C 79 % 1012,0 hPa 0,0 l/m 1,1 km/h (1 Bft) O-SO 113 10 min 0,000 mm 657 W/m 17,9 C 21,7 C 9,7 km/h (2 Bft) 100 %
17.09.2014 13:00 22,0 C 21,7 C 22,0 C 76 % 1012,0 hPa 0,0 l/m 2,2 km/h (1 Bft) SO 126 10 min 0,381 mm 661 W/m 17,6 C 22,0 C 9,7 km/h (2 Bft) 100 %
17.09.2014 13:10 22,3 C 22,0 C 22,3 C 76 % 1011,8 hPa 0,0 l/m 0,9 km/h (0 Bft) O-SO 103 10 min 0,000 mm 659 W/m 17,9 C 22,3 C 9,7 km/h (2 Bft) 99 %
17.09.2014 13:20 22,5 C 22,3 C 22,5 C 72 % 1011,8 hPa 0,0 l/m 1,5 km/h (1 Bft) O-SO 105 10 min 0,000 mm 659 W/m 17,2 C 22,5 C 9,7 km/h (2 Bft) 100 %
17.09.2014 13:30 22,6 C 22,5 C 22,6 C 69 % 1011,8 hPa 0,0 l/m 1,8 km/h (1 Bft) O-SO 111 10 min 0,000 mm 659 W/m 16,6 C 22,6 C 12,9 km/h (3 Bft) 100 %
17.09.2014 13:40 22,6 C 22,6 C 22,7 C 69 % 1011,8 hPa 0,0 l/m 2,8 km/h (1 Bft) S 182 10 min 0,000 mm 661 W/m 16,6 C 22,6 C 11,3 km/h (2 Bft) 100 %
17.09.2014 13:50 22,8 C 22,6 C 22,8 C 66 % 1011,7 hPa 0,0 l/m 0,7 km/h (0 Bft) N 355 10 min 0,000 mm 656 W/m 16,1 C 22,8 C 8,0 km/h (2 Bft) 99 %
17.09.2014 14:00 22,9 C 22,8 C 22,9 C 64 % 1011,7 hPa 0,0 l/m 1,7 km/h (1 Bft) O-NO 66 10 min 0,406 mm 656 W/m 15,7 C 22,9 C 9,7 km/h (2 Bft) 100 %
17.09.2014 14:10 23,1 C 22,9 C 23,1 C 63 % 1011,7 hPa 0,0 l/m 2,3 km/h (1 Bft) O-SO 117 10 min 0,000 mm 647 W/m 15,7 C 23,1 C 11,3 km/h (2 Bft) 100 %
17.09.2014 14:20 23,0 C 23,0 C 23,1 C 60 % 1011,6 hPa 0,0 l/m 3,6 km/h (1 Bft) O-SO 122 10 min 0,000 mm 647 W/m 14,8 C 23,0 C 14,5 km/h (3 Bft) 100 %
17.09.2014 14:30 23,1 C 23,0 C 23,1 C 60 % 1011,5 hPa 0,0 l/m 3,7 km/h (1 Bft) O-SO 116 10 min 0,000 mm 631 W/m 14,9 C 23,1 C 19,3 km/h (3 Bft) 100 %
17.09.2014 14:40 23,4 C 23,0 C 23,4 C 62 % 1011,4 hPa 0,0 l/m 0,9 km/h (0 Bft) O-SO 117 10 min 0,000 mm 624 W/m 15,7 C 23,4 C 9,7 km/h (2 Bft) 99 %
17.09.2014 14:50 23,5 C 23,4 C 23,5 C 61 % 1011,4 hPa 0,0 l/m 1,1 km/h (1 Bft) O 101 10 min 0,000 mm 608 W/m 15,5 C 23,5 C 9,7 km/h (2 Bft) 100 %
17.09.2014 15:00 23,7 C 23,4 C 23,7 C 59 % 1011,2 hPa 0,0 l/m 1,2 km/h (1 Bft) O-SO 107 10 min 0,381 mm 592 W/m 15,2 C 23,7 C 9,7 km/h (2 Bft) 100 %
17.09.2014 15:10 23,9 C 23,7 C 23,9 C 64 % 1011,2 hPa 0,0 l/m 1,6 km/h (1 Bft) N-NW 336 10 min 0,000 mm 582 W/m 16,7 C 23,9 C 11,3 km/h (2 Bft) 100 %
17.09.2014 15:20 24,0 C 23,9 C 24,0 C 63 % 1011,1 hPa 0,0 l/m 1,3 km/h (1 Bft) O 100 10 min 0,000 mm 563 W/m 16,5 C 24,0 C 9,7 km/h (2 Bft) 100 %
17.09.2014 15:30 24,2 C 24,0 C 24,2 C 64 % 1011,1 hPa 0,0 l/m 0,6 km/h (0 Bft) O-SO 113 10 min 0,000 mm 541 W/m 16,9 C 24,2 C 11,3 km/h (2 Bft) 100 %
17.09.2014 15:40 24,2 C 24,1 C 24,2 C 63 % 1010,9 hPa 0,0 l/m 0,9 km/h (0 Bft) N-NO 31 10 min 0,000 mm 526 W/m 16,7 C 24,2 C 9,7 km/h (2 Bft) 100 %
17.09.2014 15:50 24,1 C 24,1 C 24,2 C 65 % 1010,8 hPa 0,0 l/m 0,3 km/h (0 Bft) S-SO 148 10 min 0,000 mm 490 W/m 17,1 C 24,1 C 8,0 km/h (2 Bft) 99 %
17.09.2014 16:00 23,9 C 23,9 C 24,1 C 67 % 1010,7 hPa 0,0 l/m 0,5 km/h (0 Bft) S-SO 167 10 min 0,330 mm 483 W/m 17,4 C 23,9 C 8,0 km/h (2 Bft) 100 %
17.09.2014 16:10 23,8 C 23,8 C 23,9 C 65 % 1010,8 hPa 0,0 l/m 0,2 km/h (0 Bft) W 267 0 min 0,000 mm 65 W/m 16,8 C 23,8 C 8,0 km/h (2 Bft) 100 %
17.09.2014 16:20 23,7 C 23,7 C 23,8 C 66 % 1010,7 hPa 0,0 l/m 0,2 km/h (0 Bft) S-SO 152 0 min 0,000 mm 60 W/m 17,0 C 23,7 C 4,8 km/h (1 Bft) 100 %
17.09.2014 16:30 23,6 C 23,6 C 23,7 C 65 % 1010,6 hPa 0,0 l/m 0,4 km/h (0 Bft) N-NW 332 0 min 0,000 mm 62 W/m 16,6 C 23,6 C 6,4 km/h (2 Bft) 99 %
17.09.2014 16:40 23,4 C 23,4 C 23,6 C 65 % 1010,7 hPa 0,0 l/m 0,4 km/h (0 Bft) SO 125 0 min 0,000 mm 60 W/m 16,4 C 23,4 C 8,0 km/h (2 Bft) 100 %
17.09.2014 16:50 23,3 C 23,3 C 23,4 C 67 % 1010,7 hPa 0,0 l/m 0,5 km/h (0 Bft) NO 45 0 min 0,000 mm 53 W/m 16,8 C 23,3 C 4,8 km/h (1 Bft) 99 %
17.09.2014 17:00 23,1 C 23,1 C 23,3 C 65 % 1010,8 hPa 0,0 l/m 0,2 km/h (0 Bft) SO 129 0 min 0,051 mm 54 W/m 16,2 C 23,1 C 11,3 km/h (2 Bft) 100 %
17.09.2014 17:10 23,0 C 23,0 C 23,1 C 65 % 1010,6 hPa 0,0 l/m 0,2 km/h (0 Bft) SO 137 0 min 0,000 mm 51 W/m 16,1 C 23,0 C 8,0 km/h (2 Bft) 99 %
17.09.2014 17:20 22,9 C 22,9 C 23,0 C 65 % 1010,8 hPa 0,0 l/m 0,4 km/h (0 Bft) O-SO 113 0 min 0,000 mm 47 W/m 16,0 C 22,9 C 8,0 km/h (2 Bft) 99 %
17.09.2014 17:30 22,8 C 22,8 C 22,9 C 67 % 1010,7 hPa 0,0 l/m 0,3 km/h (0 Bft) SW 221 0 min 0,000 mm 46 W/m 16,3 C 22,8 C 6,4 km/h (2 Bft) 99 %
17.09.2014 17:40 22,6 C 22,6 C 22,8 C 66 % 1010,7 hPa 0,0 l/m 0,0 km/h (0 Bft) N-NO 23 0 min 0,000 mm 39 W/m 15,9 C 22,6 C 1,6 km/h (1 Bft) 100 %
17.09.2014 17:50 22,4 C 22,4 C 22,6 C 68 % 1010,5 hPa 0,0 l/m 0,0 km/h (0 Bft) N-NO 25 0 min 0,000 mm 39 W/m 16,2 C 22,4 C 1,6 km/h (1 Bft) 98 %
17.09.2014 18:00 22,2 C 22,2 C 22,4 C 67 % 1010,6 hPa 0,0 l/m 0,1 km/h (0 Bft) W-SW 242 0 min 0,026 mm 37 W/m 15,8 C 22,2 C 3,2 km/h (1 Bft) 100 %
17.09.2014 18:10 21,9 C 21,9 C 22,2 C 69 % 1010,6 hPa 0,0 l/m 0,3 km/h (0 Bft) O-NO 78 0 min 0,000 mm 35 W/m 15,9 C 21,9 C 4,8 km/h (1 Bft) 100 %
17.09.2014 18:20 21,6 C 21,6 C 21,9 C 69 % 1010,7 hPa 0,0 l/m 0,0 km/h (0 Bft) O 88 0 min 0,000 mm 32 W/m 15,7 C 21,6 C 1,6 km/h (1 Bft) 99 %
17.09.2014 18:30 21,4 C 21,4 C 21,6 C 71 % 1010,7 hPa 0,0 l/m 0,0 km/h (0 Bft) W-NW 294 0 min 0,000 mm 28 W/m 15,9 C 21,4 C 1,6 km/h (1 Bft) 100 %
17.09.2014 18:40 21,2 C 21,2 C 21,4 C 70 % 1010,8 hPa 0,0 l/m 0,2 km/h (0 Bft) N-NO 13 0 min 0,000 mm 25 W/m 15,5 C 21,2 C 6,4 km/h (2 Bft) 100 %
17.09.2014 18:50 20,9 C 20,9 C 21,2 C 70 % 1010,8 hPa 0,0 l/m 0,1 km/h (0 Bft) NO 43 0 min 0,000 mm 14 W/m 15,2 C 20,9 C 4,8 km/h (1 Bft) 99 %
17.09.2014 19:00 20,6 C 20,6 C 20,9 C 71 % 1010,8 hPa 0,0 l/m 0,0 km/h (0 Bft) O-NO 59 0 min 0,025 mm 12 W/m 15,2 C 20,6 C 1,6 km/h (1 Bft) 99 %
17.09.2014 19:10 20,2 C 20,2 C 20,6 C 72 % 1010,8 hPa 0,0 l/m 0,1 km/h (0 Bft) SO 128 0 min 0,000 mm 9 W/m 15,0 C 20,2 C 4,8 km/h (1 Bft) 99 %
17.09.2014 19:20 19,9 C 19,9 C 20,2 C 74 % 1010,7 hPa 0,0 l/m 0,0 km/h (0 Bft) SO 128 0 min 0,000 mm 7 W/m 15,1 C 19,9 C 1,6 km/h (1 Bft) 99 %
17.09.2014 19:30 19,6 C 19,6 C 19,9 C 75 % 1010,8 hPa 0,0 l/m 0,0 km/h (0 Bft) SO 128 0 min 0,000 mm 0 W/m 15,0 C 19,6 C 0,0 km/h (0 Bft) 99 %
17.09.2014 19:40 19,3 C 19,3 C 19,6 C 76 % 1010,7 hPa 0,0 l/m 0,0 km/h (0 Bft) SO 127 0 min 0,000 mm 0 W/m 15,0 C 19,3 C 1,6 km/h (1 Bft) 100 %
17.09.2014 19:50 18,9 C 18,9 C 19,3 C 78 % 1011,0 hPa 0,0 l/m 0,0 km/h (0 Bft) SO 127 0 min 0,000 mm 0 W/m 15,0 C 18,9 C 0,0 km/h (0 Bft) 100 %
17.09.2014 20:00 18,6 C 18,6 C 18,9 C 78 % 1010,9 hPa 0,0 l/m 0,0 km/h (0 Bft) SO 127 0 min 0,000 mm 0 W/m 14,7 C 18,6 C 1,6 km/h (1 Bft) 100 %
17.09.2014 20:10 18,3 C 18,3 C 18,6 C 80 % 1011,0 hPa 0,0 l/m 0,0 km/h (0 Bft) SO 127 0 min 0,000 mm 0 W/m 14,8 C 18,3 C 0,0 km/h (0 Bft) 100 %
17.09.2014 20:20 17,9 C 17,9 C 18,3 C 81 % 1011,1 hPa 0,0 l/m 0,4 km/h (0 Bft) O 79 0 min 0,000 mm 0 W/m 14,6 C 17,9 C 4,8 km/h (1 Bft) 99 %
17.09.2014 20:30 17,5 C 17,5 C 17,9 C 83 % 1011,1 hPa 0,0 l/m 0,1 km/h (0 Bft) NO 49 0 min 0,000 mm 0 W/m 14,6 C 17,5 C 1,6 km/h (1 Bft) 97 %
17.09.2014 20:40 17,3 C 17,3 C 17,5 C 84 % 1011,0 hPa 0,0 l/m 0,0 km/h (0 Bft) NO 49 0 min 0,000 mm 0 W/m 14,6 C 17,3 C 1,6 km/h (1 Bft) 97 %
17.09.2014 20:50 17,1 C 17,1 C 17,3 C 84 % 1011,1 hPa 0,0 l/m 0,0 km/h (0 Bft) NO 49 0 min 0,000 mm 0 W/m 14,4 C 17,1 C 1,6 km/h (1 Bft) 97 %
17.09.2014 21:00 16,9 C 16,9 C 17,1 C 85 % 1011,1 hPa 0,0 l/m 0,0 km/h (0 Bft) NO 49 0 min 0,025 mm 0 W/m 14,4 C 16,9 C 1,6 km/h (1 Bft) 97 %
17.09.2014 21:10 16,7 C 16,7 C 16,9 C 86 % 1011,1 hPa 0,0 l/m 0,0 km/h (0 Bft) N 0 0 min 0,000 mm 0 W/m 14,3 C 16,7 C 0,0 km/h (0 Bft) 100 %
17.09.2014 21:20 16,5 C 16,5 C 16,8 C 87 % 1011,1 hPa 0,0 l/m 0,0 km/h (0 Bft) N 0 0 min 0,000 mm 0 W/m 14,3 C 16,5 C 0,0 km/h (0 Bft) 100 %
17.09.2014 21:30 16,4 C 16,4 C 16,5 C 87 % 1011,1 hPa 0,0 l/m 0,0 km/h (0 Bft) N 0 0 min 0,000 mm 0 W/m 14,2 C 16,4 C 0,0 km/h (0 Bft) 100 %
17.09.2014 21:40 16,4 C 16,4 C 16,4 C 88 % 1011,1 hPa 0,0 l/m 0,0 km/h (0 Bft) NO 45 0 min 0,000 mm 0 W/m 14,4 C 16,4 C 4,8 km/h (1 Bft) 99 %
17.09.2014 21:50 16,3 C 16,3 C 16,5 C 87 % 1011,0 hPa 0,0 l/m 0,0 km/h (0 Bft) N-NO 22 0 min 0,000 mm 0 W/m 14,1 C 16,3 C 3,2 km/h (1 Bft) 100 %
17.09.2014 22:00 16,1 C 16,1 C 16,3 C 88 % 1010,9 hPa 0,0 l/m 0,0 km/h (0 Bft) N-NO 22 0 min 0,000 mm 0 W/m 14,1 C 16,1 C 6,4 km/h (2 Bft) 100 %
17.09.2014 22:10 15,9 C 15,9 C 16,1 C 88 % 1011,0 hPa 0,0 l/m 0,0 km/h (0 Bft) N-NO 22 0 min 0,000 mm 0 W/m 13,9 C 15,9 C 4,8 km/h (1 Bft) 99 %
17.09.2014 22:20 15,7 C 15,7 C 15,9 C 89 % 1011,0 hPa 0,0 l/m 0,0 km/h (0 Bft) N 360 0 min 0,000 mm 0 W/m 13,9 C 15,7 C 6,4 km/h (2 Bft) 100 %
17.09.2014 22:30 15,4 C 15,4 C 15,7 C 89 % 1011,1 hPa 0,0 l/m 1,6 km/h (1 Bft) N-NW 337 0 min 0,000 mm 0 W/m 13,6 C 15,4 C 4,8 km/h (1 Bft) 100 %
17.09.2014 22:40 15,2 C 15,2 C 15,5 C 89 % 1011,1 hPa 0,0 l/m 0,0 km/h (0 Bft) N-NW 337 0 min 0,000 mm 0 W/m 13,4 C 15,2 C 1,6 km/h (1 Bft) 100 %
17.09.2014 22:50 15,1 C 15,1 C 15,2 C 89 % 1011,0 hPa 0,0 l/m 0,0 km/h (0 Bft) N-NW 337 0 min 0,000 mm 0 W/m 13,3 C 15,1 C 4,8 km/h (1 Bft) 100 %
17.09.2014 23:00 14,8 C 14,8 C 15,1 C 89 % 1011,0 hPa 0,0 l/m 0,0 km/h (0 Bft) N-NW 337 0 min 0,000 mm 0 W/m 13,0 C 14,8 C 4,8 km/h (1 Bft) 100 %
17.09.2014 23:10 14,7 C 14,7 C 14,8 C 89 % 1010,9 hPa 0,0 l/m 1,6 km/h (1 Bft) NW 315 0 min 0,000 mm 0 W/m 12,9 C 14,7 C 4,8 km/h (1 Bft) 100 %
17.09.2014 23:20 14,5 C 14,5 C 14,7 C 90 % 1010,9 hPa 0,0 l/m 1,6 km/h (1 Bft) NW 315 0 min 0,000 mm 0 W/m 12,9 C 14,5 C 4,8 km/h (1 Bft) 100 %
17.09.2014 23:30 14,3 C 14,3 C 14,5 C 90 % 1010,9 hPa 0,0 l/m 0,0 km/h (0 Bft) N 0 0 min 0,000 mm 0 W/m 12,7 C 14,3 C 0,0 km/h (0 Bft) 100 %
17.09.2014 23:40 14,2 C 14,2 C 14,3 C 89 % 1010,8 hPa 0,0 l/m 0,0 km/h (0 Bft) NW 315 0 min 0,000 mm 0 W/m 12,4 C 14,2 C 1,6 km/h (1 Bft) 100 %
17.09.2014 23:50 14,2 C 14,2 C 14,2 C 90 % 1010,8 hPa 0,0 l/m 0,0 km/h (0 Bft) NW 315 0 min 0,000 mm 0 W/m 12,6 C 14,2 C 1,6 km/h (1 Bft) 100 %
_ Min-Zeit 07:40 07:40 07:30 15:00 17:50 - 00:00 - - - - - 07:20 07:20 00:20 05:00
Minimum _ 10,4 C 10,4 C 10,5 C 59 % 1010,5 hPa - 0,0 km/h (0 Bft) - - - - - 8,9 C 10,5 C 0,0 km/h (0 Bft) 88 %
_ Max-Zeit 15:30 15:40 15:30 09:00 00:00 00:00 14:30 - - 08:30 14:00 13:00 12:40 15:30 14:30 09:50
Maximum _ 24,2 C 24,1 C 24,2 C 91 % 1013,7 hPa 0,0 l/m 3,7 km/h
O-SO (1 Bft)
- - 10 min 0,406 mm 661 W/m 18,0 C 24,2 C 19,3 km/h
O (3 Bft)
100 %
Durchschnitt _ 16,5 C 16,4 C 16,6 C 82 % 1012,0 hPa #0,0 l/m 0,3 km/h (0 Bft) O-SO - #7:40 h #2,438 mm 336 W/m 13,3 C 16,5 C 4,1 km/h (1 Bft) 99 %
PRIVATE WETTERSTATION BILLIGHEIM-ALLFELD - www.neckar-odenwald-wetter.de - Holger Sonntag